Sandspit, British Columbia

2:02 PM PDT on October 18, 2017 (GMT -0700)
Sandspit

Weather History for CYZP - February, 2013

Change the Weather History Date:

Monday, February 4, 2013

  Actual Average Record
Temperature  
Mean Temperature 38 °F -  
Max Temperature 46 °F 43 °F 48 °F (2016)
Min Temperature 30 °F 34 °F 28 °F (2014)
Degree Days  
Heating Degree Days 27    
Moisture  
Dew Point 41 °F    
Average Humidity 94    
Maximum Humidity 100    
Minimum Humidity 81    
Precipitation  
Precipitation 0.00 in 0.16 in - ()
Sea Level Pressure  
Sea Level Pressure 29.61 in    
Wind  
Wind Speed 19 mph ()    
Max Wind Speed 40 mph    
Max Gust Speed 50 mph    
Visibility 4.0 miles    
Events Rain    
Averages and records for this station are not official NWS values.
T = Trace of Precipitation, MM = Missing Value Source: Averaged Metar Reports

Daily Weather History Graph

Daily Weather History Graph

Search for Another Location

Airport or City:

Trip Planner

Search our weather history database for the weather conditions in past years. The results will help you decide how hot, cold, wet, or windy it might be!

Date:

Astronomy

Feb. 04, 2013 Rise Set
Actual Time 8:25 AM PST 5:37 PM PST
Civil Twilight 7:48 AM PST 6:15 PM PST
Nautical Twilight 7:06 AM PST 6:56 PM PST
Astronomical Twilight 6:26 AM PST 7:37 PM PST
Moon 3:21 AM PST (2/4) 11:53 AM PST (2/4)
Length of Visible Light 10h 27m
Length of Day
9h 12m
Last Quarter, 36% of the Moon is Illuminated
Feb 4
Last Quarter
Feb 9
New
Feb 17
First Quarter
Feb 25
Full
Mar 4
Last Quarter

Hourly Weather History & Observations

Time (PST) Temp. Windchill Dew Point Humidity Pressure Visibility Wind Dir Wind Speed Gust Speed Precip Events Conditions
12:00 AM 32.0 °F - 32.0 °F 100% 29.99 in 9.0 mi Variable 2.3 mph - N/A   Clear
1:00 AM 35.6 °F 29.2 °F 33.8 °F 93% 30.00 in 9.0 mi WSW 8.1 mph - N/A   Clear
3:00 AM 32.0 °F - 30.2 °F 93% 30.00 in 9.0 mi Variable 2.3 mph - N/A   Clear
4:00 AM 33 °F - - % 29.99 in - WSW 3.5 mph - -  
4:00 AM 33.8 °F 29.6 °F 32.0 °F 93% 29.99 in 8.0 mi WSW 4.6 mph - N/A   Overcast
6:00 AM 33.8 °F 30.8 °F 32.0 °F 93% 29.97 in 9.0 mi WSW 3.5 mph - N/A   Mostly Cloudy
7:00 AM 32.0 °F - 32.0 °F 100% 29.94 in 7.0 mi WSW 2.3 mph - N/A   Clear
8:00 AM 32.0 °F - 32.0 °F 100% 29.92 in 9.0 mi SW 2.3 mph - N/A   Partly Cloudy
9:00 AM 33.8 °F - 33.8 °F 100% 29.91 in 6.0 mi Calm Calm - N/A   Overcast
9:09 AM 33.8 °F - 33.8 °F 100% 29.91 in 5.0 mi Variable 2.3 mph - N/A   Overcast
9:18 AM 33.8 °F - 33.8 °F 100% 29.90 in 6.0 mi West 2.3 mph - N/A   Overcast
10:00 AM 35 °F - - % 29.89 in - SW 2.3 mph - -  
10:00 AM 35.6 °F 32.8 °F 33.8 °F 93% 29.89 in 7.0 mi WSW 3.5 mph - N/A   Overcast
10:36 AM 37.4 °F 27.8 °F 35.6 °F 93% 29.88 in 9.0 mi ESE 17.3 mph - N/A   Overcast
11:00 AM 41.0 °F 31.4 °F 35.6 °F 81% 29.85 in 9.0 mi ESE 21.9 mph - N/A   Overcast
12:00 PM 41.0 °F 31.4 °F 35.6 °F 81% 29.83 in 9.0 mi ESE 21.9 mph - N/A   Overcast
1:00 PM 41.0 °F 31.6 °F 37.4 °F 87% 29.78 in 9.0 mi ESE 20.7 mph - N/A   Mostly Cloudy
1:02 PM 41.0 °F 31.6 °F 37.4 °F 87% 29.78 in 9.0 mi ESE 20.7 mph - N/A   Mostly Cloudy
1:26 PM 41.0 °F 33.1 °F 39.2 °F 93% 29.76 in 9.0 mi ESE 15.0 mph 21.9 mph N/A   Mostly Cloudy
1:28 PM 41.0 °F 31.9 °F 39.2 °F 93% 29.76 in 7.0 mi ESE 19.6 mph - N/A   Overcast
1:31 PM 41.0 °F 32.5 °F 39.2 °F 93% 29.76 in 5.0 mi ESE 17.3 mph 25.3 mph N/A   Overcast
1:37 PM 41.0 °F 31.1 °F 39.2 °F 93% 29.75 in 5.0 mi ESE 23.0 mph - N/A Rain Light Rain
1:39 PM 41.0 °F 31.4 °F 39.2 °F 93% 29.75 in 6.0 mi ESE 21.9 mph - N/A Rain Light Rain
1:46 PM 41.0 °F 31.1 °F 39.2 °F 93% 29.74 in 6.0 mi ESE 23.0 mph - N/A   Overcast
1:47 PM 41.0 °F 30.7 °F 39.2 °F 93% 29.73 in 5.0 mi East 25.3 mph - N/A   Overcast
1:50 PM 41.0 °F 30.5 °F 39.2 °F 93% 29.73 in 4.0 mi ESE 26.5 mph - N/A Rain Light Rain
1:53 PM 41.0 °F 30.7 °F 39.2 °F 93% 29.73 in 2.5 mi East 25.3 mph - N/A Rain Light Rain
2:00 PM 41.0 °F 30.7 °F 39.2 °F 93% 29.71 in 2.5 mi East 25.3 mph - N/A Rain Light Rain
2:03 PM 41.0 °F 30.5 °F 39.2 °F 93% 29.70 in 3.0 mi East 26.5 mph - N/A Rain Light Rain
2:09 PM 41.0 °F 30.5 °F 41.0 °F 100% 29.70 in 4.0 mi East 26.5 mph - N/A   Overcast
2:12 PM 42.8 °F 33.1 °F 41.0 °F 93% 29.70 in 2.5 mi East 25.3 mph 31.1 mph N/A   Overcast
2:23 PM 42.8 °F 33.5 °F 41.0 °F 93% 29.70 in 2.5 mi East 23.0 mph 32.2 mph N/A Rain Light Rain
2:24 PM 42.8 °F 33.8 °F 41.0 °F 93% 29.69 in 2.5 mi East 21.9 mph 32.2 mph N/A Rain Light Rain
2:25 PM 42.8 °F 33.8 °F 41.0 °F 93% 29.69 in 2.5 mi East 21.9 mph 32.2 mph N/A Rain Light Rain
2:29 PM 42.8 °F 33.3 °F 41.0 °F 93% 29.68 in 1.8 mi East 24.2 mph 31.1 mph N/A Rain Light Rain
2:31 PM 42.8 °F 33.3 °F 41.0 °F 93% 29.68 in 2.2 mi East 24.2 mph 29.9 mph N/A Rain Light Rain
2:36 PM 42.8 °F 33.5 °F 42.8 °F 100% 29.67 in 3.0 mi East 23.0 mph 28.8 mph N/A Rain Light Rain
2:41 PM 42.8 °F 34.0 °F 42.8 °F 100% 29.67 in 6.0 mi East 20.7 mph 26.5 mph N/A Rain Light Rain
2:49 PM 44.6 °F 35.7 °F 42.8 °F 93% 29.65 in 9.0 mi ESE 24.2 mph 31.1 mph N/A Rain Light Rain
3:00 PM 44.6 °F 35.3 °F 42.8 °F 93% 29.66 in 6.0 mi ESE 26.5 mph 33.4 mph N/A Rain Light Rain
3:02 PM 44.6 °F 35.3 °F 42.8 °F 93% 29.65 in 5.0 mi ESE 26.5 mph 33.4 mph N/A Rain Light Rain
3:03 PM 44.6 °F 35.3 °F 42.8 °F 93% 29.65 in 5.0 mi ESE 26.5 mph 33.4 mph N/A Rain Light Rain
3:31 PM 44.6 °F 35.3 °F 42.8 °F 93% 29.63 in 6.0 mi ESE 26.5 mph 33.4 mph N/A Rain Light Rain
3:32 PM 44.6 °F 34.9 °F 42.8 °F 93% 29.63 in 6.0 mi ESE 28.8 mph - N/A Rain Light Rain
3:39 PM 44.6 °F 34.6 °F 42.8 °F 93% 29.62 in 5.0 mi ESE 31.1 mph - N/A Rain Light Rain
3:51 PM 44.6 °F 35.1 °F 42.8 °F 93% 29.61 in 3.0 mi ESE 27.6 mph 34.5 mph N/A Rain Light Rain
3:58 PM 44.6 °F 35.1 °F 42.8 °F 93% 29.60 in 3.0 mi ESE 27.6 mph 34.5 mph N/A Rain Light Rain
4:00 PM 45 °F - - % 29.60 in - ESE 27.6 mph - -  
4:00 PM 44.6 °F 35.1 °F 42.8 °F 93% 29.60 in 3.0 mi ESE 27.6 mph 34.5 mph N/A Rain Light Rain
4:01 PM 44.6 °F 35.1 °F 42.8 °F 93% 29.60 in 3.0 mi ESE 27.6 mph 34.5 mph N/A Rain Light Rain
4:05 PM 44.6 °F 34.7 °F 42.8 °F 93% 29.60 in 2.2 mi ESE 29.9 mph - N/A Rain Light Rain
4:08 PM 44.6 °F 34.9 °F 42.8 °F 93% 29.59 in 2.2 mi ESE 28.8 mph 34.5 mph N/A Rain Rain
4:17 PM 44.6 °F 34.2 °F 42.8 °F 93% 29.58 in 1.8 mi ESE 33.4 mph - N/A Rain Rain
4:23 PM 44.6 °F 34.6 °F 42.8 °F 93% 29.58 in 2.0 mi East 31.1 mph 38.0 mph N/A Rain Rain
4:30 PM 44.6 °F 34.4 °F 42.8 °F 93% 29.57 in 3.0 mi ESE 32.2 mph 38.0 mph N/A Rain Light Rain
4:47 PM 44.6 °F 34.2 °F 42.8 °F 93% 29.55 in 2.5 mi ESE 33.4 mph 40.3 mph N/A Rain Rain
5:00 PM 44.6 °F 34.2 °F 42.8 °F 93% 29.55 in 2.5 mi ESE 33.4 mph 42.6 mph N/A Rain Light Rain
5:10 PM 44.6 °F 34.1 °F 42.8 °F 93% 29.53 in 1.8 mi ESE 34.5 mph 41.4 mph N/A Rain Rain
5:16 PM 44.6 °F 33.9 °F 42.8 °F 93% 29.52 in 2.0 mi ESE 35.7 mph 43.7 mph N/A Rain Light Rain
5:27 PM 44.6 °F 34.1 °F 42.8 °F 93% 29.53 in 3.0 mi ESE 34.5 mph 43.7 mph N/A Rain Light Rain
5:37 PM 44.6 °F 33.9 °F 42.8 °F 93% 29.52 in 2.5 mi ESE 35.7 mph 41.4 mph N/A Rain Light Rain
5:40 PM 44.6 °F 33.8 °F 42.8 °F 93% 29.51 in 1.8 mi ESE 36.8 mph 43.7 mph N/A Rain Rain
5:43 PM 44.6 °F 34.1 °F 42.8 °F 93% 29.50 in 1.5 mi ESE 34.5 mph 43.7 mph N/A Rain Heavy Rain
5:46 PM 44.6 °F 34.1 °F 42.8 °F 93% 29.50 in 1.2 mi ESE 34.5 mph 43.7 mph N/A Rain Rain
6:00 PM 44.6 °F 34.2 °F 42.8 °F 93% 29.49 in 1.8 mi ESE 33.4 mph 42.6 mph N/A Rain Light Rain
6:01 PM 44.6 °F 34.4 °F 42.8 °F 93% 29.49 in 1.8 mi ESE 32.2 mph 42.6 mph N/A Rain Light Rain
6:07 PM 44.6 °F 34.1 °F 42.8 °F 93% 29.48 in 2.0 mi ESE 34.5 mph 42.6 mph N/A Rain Light Rain
6:10 PM 44.6 °F 34.1 °F 42.8 °F 93% 29.48 in 1.8 mi ESE 34.5 mph 42.6 mph N/A Rain Light Rain
6:26 PM 44.6 °F 34.1 °F 44.6 °F 100% 29.47 in 1.8 mi ESE 34.5 mph 42.6 mph N/A Rain Light Rain
6:32 PM 44.6 °F 34.4 °F 44.6 °F 100% 29.47 in 1.5 mi ESE 32.2 mph 42.6 mph N/A Rain Light Rain
6:33 PM 44.6 °F 34.4 °F 44.6 °F 100% 29.46 in 1.5 mi ESE 32.2 mph 42.6 mph N/A Rain Light Rain
7:00 PM 44.6 °F 33.6 °F 44.6 °F 100% 29.44 in 1.5 mi SE 38.0 mph 46.0 mph N/A Rain Light Rain
7:10 PM 44.6 °F 33.9 °F 44.6 °F 100% 29.43 in 1.5 mi SE 35.7 mph 44.9 mph N/A Rain Light Rain
7:13 PM 44.6 °F 34.1 °F 44.6 °F 100% 29.43 in 1.5 mi SE 34.5 mph 44.9 mph N/A Rain Light Rain
7:17 PM 44.6 °F 33.8 °F 44.6 °F 100% 29.43 in 1.5 mi SE 36.8 mph 44.9 mph N/A Rain Light Rain
7:23 PM 44.6 °F 33.9 °F 44.6 °F 100% 29.43 in 2.0 mi SE 35.7 mph 48.3 mph N/A Rain Light Rain
7:53 PM 44.6 °F 33.9 °F 44.6 °F 100% 29.42 in 3.0 mi SE 35.7 mph 46.0 mph N/A Rain Light Rain
8:00 PM 46.4 °F 36.5 °F 44.6 °F 93% 29.41 in 3.0 mi SE 34.5 mph 46.0 mph N/A Rain Light Rain
8:19 PM 46.4 °F 36.9 °F 44.6 °F 93% 29.40 in 2.5 mi SE 32.2 mph 42.6 mph N/A Rain Light Rain
8:22 PM 46.4 °F 36.5 °F 44.6 °F 93% 29.40 in 2.5 mi SE 34.5 mph 42.6 mph N/A Rain Light Rain
8:30 PM 46.4 °F 36.5 °F 44.6 °F 93% 29.40 in 2.2 mi SE 34.5 mph 46.0 mph N/A Rain Light Rain
9:00 PM 46.4 °F 36.4 °F 44.6 °F 93% 29.39 in 2.5 mi SE 35.7 mph 44.9 mph N/A Rain Light Rain
9:03 PM 46.4 °F 36.9 °F 44.6 °F 93% 29.38 in 3.0 mi SE 32.2 mph 44.9 mph N/A Rain Light Rain
9:11 PM 46.4 °F 36.3 °F 44.6 °F 93% 29.38 in 2.5 mi SE 36.8 mph 43.7 mph N/A Rain Light Rain
9:20 PM 46.4 °F 36.5 °F 44.6 °F 93% 29.37 in 3.0 mi SE 34.5 mph 48.3 mph N/A Rain Light Rain
9:51 PM 46.4 °F 36.1 °F 44.6 °F 93% 29.36 in 2.5 mi SE 38.0 mph 46.0 mph N/A Rain Light Rain
9:55 PM 46.4 °F 36.3 °F 44.6 °F 93% 29.36 in 1.8 mi SE 36.8 mph 44.9 mph N/A Rain Light Rain
10:00 PM 46 °F - - % 29.35 in - SE 36.8 mph - -  
10:00 PM 46.4 °F 36.4 °F 44.6 °F 93% 29.36 in 1.8 mi SE 35.7 mph 44.9 mph N/A Rain Light Rain
10:03 PM 46.4 °F 36.4 °F 44.6 °F 93% 29.36 in 2.0 mi SE 35.7 mph 44.9 mph N/A Rain Light Rain
10:30 PM 44.6 °F 33.8 °F 44.6 °F 100% 29.34 in 3.0 mi SE 36.8 mph 42.6 mph N/A Rain Light Rain
10:43 PM 44.6 °F 33.9 °F 44.6 °F 100% 29.34 in 2.5 mi SE 35.7 mph 47.2 mph N/A Rain Light Rain
11:00 PM 44.6 °F 33.5 °F 44.6 °F 100% 29.33 in 3.0 mi SE 39.1 mph 47.2 mph N/A Rain Light Rain
11:10 PM 44.6 °F 33.3 °F 42.8 °F 93% 29.33 in 2.5 mi SE 40.3 mph 49.5 mph N/A Rain Light Rain
11:26 PM 44.6 °F 33.6 °F 42.8 °F 93% 29.32 in 3.0 mi SE 38.0 mph 46.0 mph N/A Rain Light Rain
11:51 PM 44.6 °F 33.6 °F 42.8 °F 93% 29.31 in 2.5 mi SE 38.0 mph 46.0 mph N/A Rain Light Rain